カタログに戻る

CZ-4B R/B

運用中PO
NORAD 44531·ROCKET BODY·🇨🇳 China

打ち上げ Sep 12, 2019 から Taiyuan Satellite Launch Center

Loading…

次のパス (今後24時間)

TLE

最新Source: Space-Track

元期: Sep 14, 2026, 20:48 UTC

1 44531U 19059D   26257.86727417  .00003688  00000-0  16279-3 0  9998
2 44531  98.7031 303.1097 0130812 297.6445  61.1555 15.15184286383314

AllMySatでCZ-4B R/Bをリアルタイム追跡

Download on the App Store